This is the latest recevied weather packets stored in our database for station/object SV9TNF-2. If no packets are shown the sender has not sent any weather packets the latest 10 day(s).
| Time | Temp. | Humidity | Pressure | Rain* | Wind** | Luminosity | Snow |
|---|---|---|---|---|---|---|---|
| 1777994404 | 21.67° C | 56% | 1023 hPa | 0 mm | 2.24 m/s, 67° | - | - |
| 1777994104 | 21.67° C | 57% | 1023 hPa | 0 mm | 1.79 m/s, 79° | - | - |
| 1777993804 | 21.67° C | 56% | 1023.4 hPa | 0 mm | 1.34 m/s, 92° | - | - |
| 1777993504 | 22.78° C | 52% | 1023.4 hPa | 0 mm | 1.34 m/s, 88° | - | - |
| 1777993204 | 22.78° C | 56% | 1023.4 hPa | 0 mm | 0.45 m/s, 86° | - | - |
| 1777992904 | 22.78° C | 58% | 1023.4 hPa | 0 mm | 0.89 m/s, 108° | - | - |
| 1777992604 | 22.78° C | 60% | 1023.4 hPa | 0 mm | 0.89 m/s, 119° | - | - |
| 1777992304 | 21.67° C | 61% | 1023.4 hPa | 0 mm | 0.89 m/s, 22° | - | - |
| 1777992003 | 21.67° C | 61% | 1023.4 hPa | 0 mm | 1.34 m/s, 89° | - | - |
| 1777991704 | 22.22° C | 63% | 1023.4 hPa | 0 mm | 2.68 m/s, 70° | - | - |
| 1777991403 | 21.67° C | 65% | 1023.4 hPa | 0 mm | 1.79 m/s, 81° | - | - |
| 1777991103 | 21.67° C | 62% | 1023.4 hPa | 0 mm | 2.68 m/s, 90° | - | - |
| 1777990803 | 22.22° C | 56% | 1023.4 hPa | 0 mm | 2.68 m/s, 18° | - | - |
| 1777990503 | 21.67° C | 56% | 1023.4 hPa | 0 mm | 4.02 m/s, 91° | - | - |
| 1777989903 | 22.22° C | 52% | 1023.4 hPa | 0 mm | 2.68 m/s, 120° | - | - |
| 1777989603 | 22.78° C | 49% | 1023.4 hPa | 0 mm | 4.47 m/s, 71° | - | - |
| 1777989303 | 22.78° C | 40% | 1023.4 hPa | 0 mm | 2.68 m/s, 100° | - | - |
| 1777989003 | 22.78° C | 38% | 1023.4 hPa | 0 mm | 3.13 m/s, 73° | - | - |
| 1777988702 | 23.33° C | 37% | 1023.4 hPa | 0 mm | 1.34 m/s, 108° | - | - |
| 1777988402 | 24.44° C | 30% | 1023.4 hPa | 0 mm | 0.45 m/s, 357° | - | - |
| 1777988102 | 24.44° C | 29% | 1023.4 hPa | 0 mm | 1.79 m/s, 81° | - | - |
| 1777987802 | 25° C | 27% | 1023.4 hPa | 0 mm | 0.89 m/s, 242° | - | - |
| 1777987502 | 25° C | 26% | 1023.4 hPa | 0 mm | 2.68 m/s, 250° | - | - |
| 1777987202 | 25.56° C | 25% | 1023.4 hPa | 0 mm | 0.45 m/s, 232° | - | - |
| 1777986902 | 25° C | 25% | 1023.4 hPa | 0 mm | 1.34 m/s, 337° | - | - |
* Rain latest hour (hover to see other rain measurements)
** Current wind speed in m/s (hover to see current wind gust speed)